Time,TemperatureF,DewpointF,PressureIn,WindDirection,WindDirectionDegrees,WindSpeedMPH,WindSpeedGustMPH,Humidity,HourlyPrecipIn,Conditions,Clouds,dailyrainin,SolarRadiationWatts/m^2,SoftwareType,DateUTC
2014-01-23 00:00:00,38.2,36.9,30.34,NNE,19,0.0,0.0,95,0.00,CLR,,0.08,0.0,WeatherDisplay:10.37,2014-01-23 08:00:00,
2014-01-23 00:05:00,38.0,36.7,30.34,NNE,19,0.0,0.0,95,0.00,CLR,,0.00,0.0,WeatherDisplay:10.37,2014-01-23 08:05:00,
2014-01-23 00:10:00,37.7,36.4,30.34,NNE,18,0.0,0.0,95,0.00,CLR,,0.00,0.0,WeatherDisplay:10.37,2014-01-23 08:10:00,
2014-01-23 00:15:00,37.5,36.2,30.34,NNE,18,2.0,3.5,95,0.00,CLR,,0.00,0.0,WeatherDisplay:10.37,2014-01-23 08:15:00,
2014-01-23 00:20:00,37.4,36.1,30.34,NNE,18,0.1,1.2,95,0.00,CLR,,0.00,0.0,WeatherDisplay:10.37,2014-01-23 08:20:00,
2014-01-23 00:25:00,37.2,35.9,30.34,NNE,25,0.8,2.3,95,0.00,CLR,,0.00,0.0,WeatherDisplay:10.37,2014-01-23 08:25:00,
2014-01-23 00:30:00,37.1,35.8,30.33,NNE,25,0.0,0.0,95,0.00,CLR,,0.00,0.0,WeatherDisplay:10.37,2014-01-23 08:30:00,
2014-01-23 00:35:00,36.9,35.6,30.33,NNE,25,0.0,0.0,95,0.00,CLR,,0.00,0.0,WeatherDisplay:10.37,2014-01-23 08:35:00,
2014-01-23 00:40:00,36.7,35.4,30.33,NNE,25,0.0,0.0,95,0.00,CLR,,0.00,0.0,WeatherDisplay:10.37,2014-01-23 08:40:00,
2014-01-23 00:45:00,36.6,35.3,30.33,NNE,25,0.3,2.3,95,0.00,CLR,,0.00,0.0,WeatherDisplay:10.37,2014-01-23 08:45:00,
2014-01-23 00:50:00,36.5,35.2,30.33,NNE,25,0.0,0.0,95,0.00,CLR,,0.00,0.0,WeatherDisplay:10.37,2014-01-23 08:50:00,
2014-01-23 00:55:00,36.5,35.2,30.33,NNE,25,0.0,1.2,95,0.00,CLR,,0.00,0.0,WeatherDisplay:10.37,2014-01-23 08:55:00,
2014-01-23 01:00:00,36.4,35.1,30.33,NNE,25,0.0,0.0,95,0.00,CLR,,0.00,0.0,WeatherDisplay:10.37,2014-01-23 09:00:00,
2014-01-23 01:05:00,36.4,35.1,30.33,NNE,25,0.0,0.0,95,0.00,CLR,,0.00,0.0,WeatherDisplay:10.37,2014-01-23 09:05:00,
2014-01-23 01:10:00,36.4,35.1,30.33,NNE,25,0.0,0.0,95,0.00,CLR,,0.00,0.0,WeatherDisplay:10.37,2014-01-23 09:10:00,
2014-01-23 01:15:00,36.3,35.0,30.34,NNE,25,0.0,0.0,95,0.00,CLR,,0.00,0.0,WeatherDisplay:10.37,2014-01-23 09:15:00,
2014-01-23 01:20:00,36.2,34.9,30.33,NNE,25,0.0,0.0,95,0.00,CLR,,0.00,0.0,WeatherDisplay:10.37,2014-01-23 09:20:00,
2014-01-23 01:25:00,36.0,34.7,30.33,NNE,25,0.0,0.0,95,0.00,CLR,,0.00,0.0,WeatherDisplay:10.37,2014-01-23 09:25:00,
2014-01-23 01:30:00,35.7,34.4,30.33,NNE,25,0.0,0.0,95,0.00,CLR,,0.00,0.0,WeatherDisplay:10.37,2014-01-23 09:30:00,
2014-01-23 01:35:00,35.4,34.1,30.33,NNE,25,0.0,0.0,95,0.00,CLR,,0.00,0.0,WeatherDisplay:10.37,2014-01-23 09:35:00,
2014-01-23 01:40:00,35.1,33.8,30.33,NNE,25,0.0,0.0,95,0.00,CLR,,0.00,0.0,WeatherDisplay:10.37,2014-01-23 09:40:00,
2014-01-23 01:45:00,34.8,33.5,30.33,NNE,25,0.0,0.0,95,0.00,CLR,,0.00,0.0,WeatherDisplay:10.37,2014-01-23 09:45:00,
2014-01-23 01:50:00,34.4,33.1,30.33,NNE,25,0.0,0.0,95,0.00,CLR,,0.00,0.0,WeatherDisplay:10.37,2014-01-23 09:50:00,
2014-01-23 01:55:00,34.0,32.7,30.33,NNE,25,0.0,0.0,95,0.00,CLR,,0.00,0.0,WeatherDisplay:10.37,2014-01-23 09:55:00,
2014-01-23 02:00:00,33.8,32.5,30.34,NNE,25,0.4,1.2,95,0.00,CLR,,0.00,0.0,WeatherDisplay:10.37,2014-01-23 10:00:00,
2014-01-23 02:05:00,33.5,32.2,30.34,NNE,25,0.0,1.0,95,0.00,CLR,,0.00,0.0,WeatherDisplay:10.37,2014-01-23 10:05:00,
2014-01-23 02:11:00,33.4,32.1,30.34,NNE,25,0.0,0.0,95,0.00,CLR,,0.00,0.0,WeatherDisplay:10.37,2014-01-23 10:11:00,
2014-01-23 02:16:00,33.4,32.1,30.34,NNE,25,0.0,0.0,95,0.00,CLR,,0.00,0.0,WeatherDisplay:10.37,2014-01-23 10:16:00,
2014-01-23 02:21:00,33.3,32.0,30.34,NNE,25,0.0,0.0,95,0.00,CLR,,0.00,0.0,WeatherDisplay:10.37,2014-01-23 10:21:00,
2014-01-23 02:26:00,33.2,31.9,30.34,NNE,25,0.0,0.0,95,0.00,CLR,,0.00,0.0,WeatherDisplay:10.37,2014-01-23 10:26:00,
2014-01-23 02:31:00,33.0,31.7,30.34,NNE,25,0.6,2.3,95,0.00,CLR,,0.00,0.0,WeatherDisplay:10.37,2014-01-23 10:31:00,
2014-01-23 02:36:00,32.9,31.6,30.34,NNE,25,0.1,1.0,95,0.00,CLR,,0.00,0.0,WeatherDisplay:10.37,2014-01-23 10:36:00,
2014-01-23 02:42:00,32.6,31.3,30.34,NNE,25,0.8,2.3,95,0.00,CLR,,0.00,0.0,WeatherDisplay:10.37,2014-01-23 10:42:00,
2014-01-23 02:47:00,32.4,31.1,30.33,NNE,26,1.5,3.5,95,0.00,CLR,,0.00,0.0,WeatherDisplay:10.37,2014-01-23 10:47:00,
2014-01-23 02:53:00,32.2,30.9,30.33,NNE,26,0.4,2.3,95,0.00,CLR,,0.00,0.0,WeatherDisplay:10.37,2014-01-23 10:53:00,
2014-01-23 02:58:00,32.1,31.1,30.33,NNE,26,0.0,0.0,96,0.00,CLR,,0.00,0.0,WeatherDisplay:10.37,2014-01-23 10:58:00,
2014-01-23 03:03:00,32.0,31.0,30.33,NNE,26,0.6,1.2,96,0.00,CLR,,0.00,0.0,WeatherDisplay:10.37,2014-01-23 11:03:00,
2014-01-23 03:08:00,32.3,31.3,30.33,NNE,25,2.0,3.5,96,0.00,CLR,,0.00,0.0,WeatherDisplay:10.37,2014-01-23 11:08:00,
2014-01-23 03:13:00,32.4,31.4,30.33,NNE,23,0.0,0.0,96,0.00,CLR,,0.00,0.0,WeatherDisplay:10.37,2014-01-23 11:13:00,
2014-01-23 03:18:00,32.5,31.5,30.33,NNE,23,0.0,0.0,96,0.00,CLR,,0.00,0.0,WeatherDisplay:10.37,2014-01-23 11:18:00,
2014-01-23 03:23:00,32.6,31.6,30.33,NNE,23,0.0,1.2,96,0.00,CLR,,0.00,0.0,WeatherDisplay:10.37,2014-01-23 11:23:00,
2014-01-23 03:28:00,32.7,31.7,30.33,NNE,23,2.6,3.5,96,0.00,CLR,,0.00,0.0,WeatherDisplay:10.37,2014-01-23 11:28:00,
2014-01-23 03:33:00,32.8,31.8,30.34,NNE,23,0.0,1.2,96,0.00,CLR,,0.00,0.0,WeatherDisplay:10.37,2014-01-23 11:33:00,
2014-01-23 03:38:00,32.6,31.6,30.33,NNE,23,0.9,2.3,96,0.00,CLR,,0.00,0.0,WeatherDisplay:10.37,2014-01-23 11:38:00,
2014-01-23 03:43:00,32.1,31.1,30.34,NE,38,0.0,0.0,96,0.00,CLR,,0.00,0.0,WeatherDisplay:10.37,2014-01-23 11:43:00,
2014-01-23 03:48:00,31.9,30.9,30.34,NE,38,0.0,0.0,96,0.00,CLR,,0.00,0.0,WeatherDisplay:10.37,2014-01-23 11:48:00,
2014-01-23 03:53:00,31.6,30.6,30.34,NE,38,0.0,1.2,96,0.00,CLR,,0.00,0.0,WeatherDisplay:10.37,2014-01-23 11:53:00,
2014-01-23 03:58:00,31.5,30.5,30.34,NE,38,0.0,2.3,96,0.00,CLR,,0.00,0.0,WeatherDisplay:10.37,2014-01-23 11:58:00,
2014-01-23 04:03:00,31.4,30.4,30.34,NE,39,0.2,2.3,96,0.00,CLR,,0.00,0.0,WeatherDisplay:10.37,2014-01-23 12:03:00,
2014-01-23 04:08:00,31.3,30.3,30.34,NE,39,0.0,0.0,96,0.00,CLR,,0.00,0.0,WeatherDisplay:10.37,2014-01-23 12:08:00,
2014-01-23 04:13:00,31.3,30.3,30.34,NE,39,0.0,0.0,96,0.00,CLR,,0.00,0.0,WeatherDisplay:10.37,2014-01-23 12:13:00,
2014-01-23 04:18:00,31.2,30.2,30.34,NE,39,1.0,2.3,96,0.00,CLR,,0.00,0.0,WeatherDisplay:10.37,2014-01-23 12:18:00,
2014-01-23 04:23:00,31.1,30.1,30.34,NE,39,0.5,1.2,96,0.00,CLR,,0.00,0.0,WeatherDisplay:10.37,2014-01-23 12:23:00,
2014-01-23 04:28:00,31.2,30.2,30.34,NE,39,0.0,0.0,96,0.00,CLR,,0.00,0.0,WeatherDisplay:10.37,2014-01-23 12:28:00,
2014-01-23 04:33:00,31.3,30.5,30.34,NNE,31,0.0,0.0,97,0.00,CLR,,0.00,0.0,WeatherDisplay:10.37,2014-01-23 12:33:00,
2014-01-23 04:38:00,31.3,30.3,30.34,NE,41,0.3,2.0,96,0.00,CLR,,0.00,0.0,WeatherDisplay:10.37,2014-01-23 12:38:00,
2014-01-23 04:43:00,31.1,30.1,30.34,SSE,149,0.1,1.2,96,0.00,CLR,,0.00,0.0,WeatherDisplay:10.37,2014-01-23 12:43:00,
2014-01-23 04:48:00,31.0,30.0,30.34,SSE,149,0.0,0.0,96,0.00,CLR,,0.00,0.0,WeatherDisplay:10.37,2014-01-23 12:48:00,
2014-01-23 04:53:00,31.0,30.0,30.34,SSE,149,0.7,2.3,96,0.00,CLR,,0.00,0.0,WeatherDisplay:10.37,2014-01-23 12:53:00,
2014-01-23 04:58:00,31.0,30.0,30.34,SSE,149,0.0,0.0,96,0.00,CLR,,0.00,0.0,WeatherDisplay:10.37,2014-01-23 12:58:00,
2014-01-23 05:03:00,31.0,30.0,30.34,SSE,149,0.0,0.0,96,0.00,CLR,,0.00,0.0,WeatherDisplay:10.37,2014-01-23 13:03:00,
2014-01-23 05:08:00,31.0,30.0,30.34,SSE,149,0.0,0.0,96,0.00,CLR,,0.00,0.0,WeatherDisplay:10.37,2014-01-23 13:08:00,
2014-01-23 05:13:00,30.8,29.8,30.34,SSE,149,0.0,0.0,96,0.00,CLR,,0.00,0.0,WeatherDisplay:10.37,2014-01-23 13:13:00,
2014-01-23 05:18:00,30.7,29.7,30.34,SSE,149,0.0,0.0,96,0.00,CLR,,0.00,0.0,WeatherDisplay:10.37,2014-01-23 13:18:00,
2014-01-23 05:23:00,30.6,29.6,30.34,SSE,149,0.0,0.0,96,0.00,CLR,,0.00,0.0,WeatherDisplay:10.37,2014-01-23 13:23:00,
2014-01-23 05:28:00,30.6,29.6,30.35,SSE,149,0.0,0.0,96,0.00,CLR,,0.00,0.0,WeatherDisplay:10.37,2014-01-23 13:28:00,
2014-01-23 05:33:00,30.6,29.6,30.35,SW,215,0.0,2.3,96,0.00,CLR,,0.00,0.0,WeatherDisplay:10.37,2014-01-23 13:33:00,
2014-01-23 05:38:00,30.6,29.6,30.35,SSW,211,0.2,2.0,96,0.00,CLR,,0.00,0.0,WeatherDisplay:10.37,2014-01-23 13:38:00,
2014-01-23 05:43:00,30.3,29.3,30.34,SSW,206,0.0,0.0,96,0.00,CLR,,0.00,0.0,WeatherDisplay:10.37,2014-01-23 13:43:00,
2014-01-23 05:49:00,30.2,29.2,30.35,SSW,206,0.0,0.0,96,0.00,CLR,,0.00,0.0,WeatherDisplay:10.37,2014-01-23 13:49:00,
2014-01-23 05:54:00,30.2,29.2,30.35,SSW,206,0.0,0.0,96,0.00,CLR,,0.00,0.0,WeatherDisplay:10.37,2014-01-23 13:54:00,
2014-01-23 05:59:00,30.1,29.1,30.35,SSW,206,0.0,0.0,96,0.00,CLR,,0.00,0.0,WeatherDisplay:10.37,2014-01-23 13:59:00,
2014-01-23 06:05:00,30.2,29.2,30.35,SSW,206,0.0,0.0,96,0.00,CLR,,0.00,0.0,WeatherDisplay:10.37,2014-01-23 14:05:00,
2014-01-23 06:10:00,30.3,29.6,30.35,SSW,206,0.0,0.0,97,0.00,CLR,,0.00,0.0,WeatherDisplay:10.37,2014-01-23 14:10:00,
2014-01-23 06:15:00,30.5,29.8,30.35,SSW,206,0.0,0.0,97,0.00,CLR,,0.00,0.0,WeatherDisplay:10.37,2014-01-23 14:15:00,
2014-01-23 06:20:00,30.3,29.6,30.35,SE,141,0.0,0.0,97,0.00,CLR,,0.00,0.0,WeatherDisplay:10.37,2014-01-23 14:20:00,
2014-01-23 06:25:00,30.3,29.6,30.35,SSE,149,0.0,2.0,97,0.00,CLR,,0.00,0.0,WeatherDisplay:10.37,2014-01-23 14:25:00,
2014-01-23 06:30:00,30.3,29.5,30.35,SE,141,0.0,2.0,97,0.00,CLR,,0.00,0.0,WeatherDisplay:10.37,2014-01-23 14:30:00,
2014-01-23 06:35:00,30.3,29.6,30.35,SE,141,0.0,2.0,97,0.00,CLR,,0.00,0.0,WeatherDisplay:10.37,2014-01-23 14:35:00,
2014-01-23 06:40:00,30.3,29.6,30.35,SE,141,0.0,0.0,97,0.00,CLR,,0.00,0.0,WeatherDisplay:10.37,2014-01-23 14:40:00,
2014-01-23 06:45:00,30.3,29.6,30.35,SE,141,0.0,0.0,97,0.00,CLR,,0.00,0.0,WeatherDisplay:10.37,2014-01-23 14:45:00,
2014-01-23 06:50:00,30.3,29.6,30.35,SE,141,0.0,0.0,97,0.00,CLR,,0.00,0.0,WeatherDisplay:10.37,2014-01-23 14:50:00,
2014-01-23 06:55:00,30.4,29.7,30.35,SE,141,0.0,0.0,97,0.00,CLR,,0.00,0.0,WeatherDisplay:10.37,2014-01-23 14:55:00,
2014-01-23 07:00:00,30.4,29.7,30.35,SE,141,1.3,2.3,97,0.00,CLR,,0.00,0.0,WeatherDisplay:10.37,2014-01-23 15:00:00,
2014-01-23 07:05:00,30.5,29.8,30.35,SE,141,0.0,0.0,97,0.00,CLR,,0.00,0.0,WeatherDisplay:10.37,2014-01-23 15:05:00,
2014-01-23 07:10:00,30.7,30.0,30.35,NNE,23,1.1,3.5,97,0.00,CLR,,0.00,0.0,WeatherDisplay:10.37,2014-01-23 15:10:00,
2014-01-23 07:15:00,30.8,30.0,30.35,NNE,23,0.0,0.0,97,0.00,CLR,,0.00,0.0,WeatherDisplay:10.37,2014-01-23 15:15:00,
2014-01-23 07:20:00,30.9,30.1,30.35,NNE,23,0.0,0.0,97,0.00,CLR,,0.00,0.0,WeatherDisplay:10.37,2014-01-23 15:20:00,
2014-01-23 07:25:00,30.9,30.1,30.35,NNE,23,0.0,0.0,97,0.00,CLR,,0.00,0.0,WeatherDisplay:10.37,2014-01-23 15:25:00,
2014-01-23 07:31:00,30.6,29.9,30.35,NNE,23,0.0,0.0,97,0.00,CLR,,0.00,0.0,WeatherDisplay:10.37,2014-01-23 15:31:00,
2014-01-23 07:36:00,30.5,29.8,30.35,NNE,23,0.1,1.2,97,0.00,CLR,,0.00,0.0,WeatherDisplay:10.37,2014-01-23 15:36:00,
2014-01-23 07:41:00,30.4,29.7,30.35,NNE,23,1.8,2.3,97,0.00,CLR,,0.00,0.0,WeatherDisplay:10.37,2014-01-23 15:41:00,
2014-01-23 07:46:00,30.3,29.6,30.35,NNE,23,0.5,1.2,97,0.00,CLR,,0.00,5.0,WeatherDisplay:10.37,2014-01-23 15:46:00,
2014-01-23 07:51:00,30.4,29.7,30.34,NNE,23,0.0,0.0,97,0.00,CLR,,0.00,5.0,WeatherDisplay:10.37,2014-01-23 15:51:00,
2014-01-23 07:56:00,30.5,29.8,30.34,NNE,23,0.0,0.0,97,0.00,CLR,,0.00,7.0,WeatherDisplay:10.37,2014-01-23 15:56:00,
2014-01-23 08:01:00,30.6,29.9,30.34,NNE,23,0.0,0.0,97,0.00,OVC,,0.00,11.0,WeatherDisplay:10.37,2014-01-23 16:01:00,
2014-01-23 08:06:00,30.6,29.9,30.34,NNE,23,0.0,0.0,97,0.00,OVC,,0.00,14.0,WeatherDisplay:10.37,2014-01-23 16:06:00,
2014-01-23 08:11:00,30.9,30.1,30.34,NNE,23,1.1,2.3,97,0.00,OVC,,0.00,18.0,WeatherDisplay:10.37,2014-01-23 16:11:00,
2014-01-23 08:17:00,31.4,30.6,30.34,NNE,23,0.9,1.2,97,0.00,OVC,,0.00,32.0,WeatherDisplay:10.37,2014-01-23 16:17:00,
2014-01-23 08:22:00,31.6,30.8,30.34,North,8,0.0,0.0,97,0.00,OVC,,0.00,39.0,WeatherDisplay:10.37,2014-01-23 16:22:00,
2014-01-23 08:27:00,31.9,31.1,30.34,North,8,0.0,0.0,97,0.00,OVC,,0.00,46.0,WeatherDisplay:10.37,2014-01-23 16:27:00,
2014-01-23 08:32:00,32.4,31.9,30.34,North,8,0.0,0.0,98,0.00,OVC,,0.00,49.0,WeatherDisplay:10.37,2014-01-23 16:32:00,
2014-01-23 08:37:00,33.3,32.8,30.35,North,8,0.0,0.0,98,0.00,OVC,,0.00,49.0,WeatherDisplay:10.37,2014-01-23 16:37:00,
2014-01-23 08:42:00,33.8,33.3,30.35,North,8,0.0,0.0,98,0.01,RA,,0.01,56.0,WeatherDisplay:10.37,2014-01-23 16:42:00,
2014-01-23 08:47:00,34.1,33.6,30.35,North,8,0.0,0.0,98,0.01,RA,,0.01,67.0,WeatherDisplay:10.37,2014-01-23 16:47:00,
2014-01-23 08:52:00,34.5,34.0,30.35,North,8,0.0,0.0,98,0.01,BKN,,0.01,79.0,WeatherDisplay:10.37,2014-01-23 16:52:00,
2014-01-23 08:57:00,35.1,34.6,30.35,North,8,0.0,0.0,98,0.01,SCT,,0.01,88.0,WeatherDisplay:10.37,2014-01-23 16:57:00,
2014-01-23 09:02:00,35.6,35.1,30.35,North,8,0.0,0.0,98,0.01,CLR,,0.01,98.0,WeatherDisplay:10.37,2014-01-23 17:02:00,
2014-01-23 09:07:00,36.3,35.8,30.35,North,8,0.0,0.0,98,0.01,CLR,,0.01,111.0,WeatherDisplay:10.37,2014-01-23 17:07:00,
2014-01-23 09:12:00,36.9,36.4,30.35,North,8,0.0,0.0,98,0.01,CLR,,0.01,123.0,WeatherDisplay:10.37,2014-01-23 17:12:00,
2014-01-23 09:17:00,37.4,36.9,30.35,North,8,0.0,0.0,98,0.01,CLR,,0.01,135.0,WeatherDisplay:10.37,2014-01-23 17:17:00,
2014-01-23 09:22:00,37.8,37.3,30.35,North,8,0.0,0.0,98,0.01,CLR,,0.01,148.0,WeatherDisplay:10.37,2014-01-23 17:22:00,
2014-01-23 09:27:00,38.1,37.6,30.35,North,8,0.0,0.0,98,0.01,CLR,,0.01,160.0,WeatherDisplay:10.37,2014-01-23 17:27:00,
2014-01-23 09:32:00,38.8,38.3,30.35,North,8,0.0,0.0,98,0.01,CLR,,0.01,172.0,WeatherDisplay:10.37,2014-01-23 17:32:00,
2014-01-23 09:37:00,39.6,39.1,30.35,NNE,12,0.5,1.2,98,0.01,CLR,,0.01,183.0,WeatherDisplay:10.37,2014-01-23 17:37:00,
2014-01-23 09:42:00,40.6,40.3,30.34,ENE,58,0.4,2.3,99,0.00,CLR,,0.01,195.0,WeatherDisplay:10.37,2014-01-23 17:42:00,
2014-01-23 09:47:00,41.5,41.2,30.35,East,81,1.9,3.5,99,0.00,CLR,,0.01,206.0,WeatherDisplay:10.37,2014-01-23 17:47:00,
2014-01-23 09:52:00,42.2,41.9,30.34,ESE,123,6.2,6.9,99,0.00,CLR,,0.01,216.0,WeatherDisplay:10.37,2014-01-23 17:52:00,
2014-01-23 09:57:00,42.6,42.3,30.34,ESE,114,10.6,12.7,99,0.00,CLR,,0.01,225.0,WeatherDisplay:10.37,2014-01-23 17:57:00,
2014-01-23 10:02:00,43.4,43.1,30.34,ESE,107,12.8,13.8,99,0.00,CLR,,0.01,239.0,WeatherDisplay:10.37,2014-01-23 18:02:00,
2014-01-23 10:07:00,44.5,43.2,30.34,East,101,12.9,15.0,95,0.00,CLR,,0.01,250.0,WeatherDisplay:10.37,2014-01-23 18:07:00,
2014-01-23 10:12:00,45.4,42.9,30.34,ESE,106,13.1,15.0,91,0.00,CLR,,0.01,260.0,WeatherDisplay:10.37,2014-01-23 18:12:00,
2014-01-23 10:17:00,46.0,42.9,30.34,ESE,121,11.4,12.7,89,0.00,CLR,,0.01,272.0,WeatherDisplay:10.37,2014-01-23 18:17:00,
2014-01-23 10:22:00,46.3,42.9,30.34,SE,134,12.6,16.1,88,0.00,CLR,,0.01,285.0,WeatherDisplay:10.37,2014-01-23 18:22:00,
2014-01-23 10:27:00,46.5,43.1,30.34,SE,131,9.9,12.7,88,0.00,CLR,,0.01,294.0,WeatherDisplay:10.37,2014-01-23 18:27:00,
2014-01-23 10:32:00,47.1,42.8,30.34,SSE,150,8.0,10.4,85,0.00,CLR,,0.01,302.0,WeatherDisplay:10.37,2014-01-23 18:32:00,
2014-01-23 10:37:00,47.7,43.1,30.34,SE,133,8.2,10.4,84,0.00,CLR,,0.01,313.0,WeatherDisplay:10.37,2014-01-23 18:37:00,
2014-01-23 10:42:00,47.4,42.8,30.34,SSE,150,6.4,9.2,84,0.00,CLR,,0.01,322.0,WeatherDisplay:10.37,2014-01-23 18:42:00,
2014-01-23 10:47:00,47.7,43.1,30.34,ESE,116,4.1,5.8,84,0.00,CLR,,0.01,330.0,WeatherDisplay:10.37,2014-01-23 18:47:00,
2014-01-23 10:52:00,48.1,43.2,30.34,ESE,110,1.7,3.5,83,0.00,CLR,,0.01,338.0,WeatherDisplay:10.37,2014-01-23 18:52:00,
2014-01-23 10:57:00,48.8,43.5,30.34,SE,141,2.2,3.5,82,0.00,CLR,,0.01,346.0,WeatherDisplay:10.37,2014-01-23 18:57:00,
2014-01-23 11:02:00,49.2,43.6,30.34,SSE,157,5.3,5.3,81,0.00,CLR,,0.01,353.0,WeatherDisplay:10.37,2014-01-23 19:02:00,
2014-01-23 11:07:00,49.2,43.3,30.34,SE,136,10.3,11.5,80,0.00,CLR,,0.01,360.0,WeatherDisplay:10.37,2014-01-23 19:07:00,
2014-01-23 11:12:00,49.3,44.0,30.34,SE,139,7.8,10.0,82,0.00,CLR,,0.01,366.0,WeatherDisplay:10.37,2014-01-23 19:12:00,
2014-01-23 11:18:00,49.5,43.6,30.34,SSE,164,13.2,15.0,80,0.00,CLR,,0.01,371.0,WeatherDisplay:10.37,2014-01-23 19:18:00,
2014-01-23 11:23:00,49.2,43.6,30.34,SE,135,14.1,17.3,81,0.00,CLR,,0.01,378.0,WeatherDisplay:10.37,2014-01-23 19:23:00,
2014-01-23 11:28:00,49.2,43.6,30.34,SE,144,15.3,19.6,81,0.00,CLR,,0.01,381.0,WeatherDisplay:10.37,2014-01-23 19:28:00,
2014-01-23 11:33:00,49.4,43.5,30.34,SE,131,13.2,17.3,80,0.00,CLR,,0.01,387.0,WeatherDisplay:10.37,2014-01-23 19:33:00,
2014-01-23 11:38:00,49.5,43.6,30.34,SE,124,10.0,11.5,80,0.00,CLR,,0.01,390.0,WeatherDisplay:10.37,2014-01-23 19:38:00,
2014-01-23 11:43:00,50.2,44.3,30.33,ENE,77,5.0,6.9,80,0.00,CLR,,0.01,396.0,WeatherDisplay:10.37,2014-01-23 19:43:00,
2014-01-23 11:48:00,50.9,44.6,30.33,ESE,117,6.0,6.9,79,0.00,CLR,,0.01,401.0,WeatherDisplay:10.37,2014-01-23 19:48:00,
2014-01-23 11:53:00,51.5,44.9,30.33,East,84,4.6,5.8,78,0.00,CLR,,0.01,406.0,WeatherDisplay:10.37,2014-01-23 19:53:00,
2014-01-23 11:58:00,52.2,44.5,30.32,East,91,3.4,5.8,75,0.00,CLR,,0.01,408.0,WeatherDisplay:10.37,2014-01-23 19:58:00,
2014-01-23 12:03:00,52.8,44.7,30.33,NE,52,6.7,10.4,74,0.00,CLR,,0.01,411.0,WeatherDisplay:10.37,2014-01-23 20:03:00,
2014-01-23 12:08:00,53.1,43.9,30.32,East,93,6.3,9.2,71,0.00,CLR,,0.01,420.0,WeatherDisplay:10.37,2014-01-23 20:08:00,
2014-01-23 12:13:00,53.4,44.2,30.32,ENE,57,2.2,3.5,71,0.00,CLR,,0.01,418.0,WeatherDisplay:10.37,2014-01-23 20:13:00,
2014-01-23 12:18:00,53.8,44.2,30.32,ENE,68,4.6,4.6,70,0.00,CLR,,0.01,418.0,WeatherDisplay:10.37,2014-01-23 20:18:00,
2014-01-23 12:23:00,54.2,44.2,30.33,NE,45,4.7,9.2,69,0.00,CLR,,0.01,420.0,WeatherDisplay:10.37,2014-01-23 20:23:00,
2014-01-23 12:28:00,54.4,42.5,30.33,SE,139,3.0,6.0,64,0.00,CLR,,0.01,418.0,WeatherDisplay:10.37,2014-01-23 20:28:00,
2014-01-23 12:33:00,54.9,42.5,30.32,ENE,70,9.9,11.5,63,0.00,CLR,,0.01,422.0,WeatherDisplay:10.37,2014-01-23 20:33:00,
2014-01-23 12:38:00,55.0,41.8,30.32,East,94,5.2,10.4,61,0.00,CLR,,0.01,420.0,WeatherDisplay:10.37,2014-01-23 20:38:00,
2014-01-23 12:43:00,55.1,41.0,30.32,ESE,119,3.8,10.4,59,0.00,CLR,,0.01,403.0,WeatherDisplay:10.37,2014-01-23 20:43:00,
2014-01-23 12:49:00,55.3,42.5,30.31,SE,139,4.8,6.9,62,0.00,CLR,,0.01,394.0,WeatherDisplay:10.37,2014-01-23 20:49:00,
2014-01-23 12:54:00,55.5,42.3,30.31,ESE,107,5.7,8.0,61,0.00,CLR,,0.01,403.0,WeatherDisplay:10.37,2014-01-23 20:54:00,
2014-01-23 12:59:00,55.7,42.0,30.31,ENE,72,8.7,12.7,60,0.00,CLR,,0.01,403.0,WeatherDisplay:10.37,2014-01-23 20:59:00,
2014-01-23 13:04:00,55.7,42.5,30.31,ENE,78,2.9,4.6,61,0.00,CLR,,0.01,322.0,WeatherDisplay:10.37,2014-01-23 21:04:00,
2014-01-23 13:09:00,55.8,41.2,30.31,East,87,1.6,3.5,58,0.00,CLR,,0.01,364.0,WeatherDisplay:10.37,2014-01-23 21:09:00,
2014-01-23 13:14:00,56.2,42.1,30.31,ENE,75,10.9,13.0,59,0.00,CLR,,0.01,396.0,WeatherDisplay:10.37,2014-01-23 21:14:00,
2014-01-23 13:19:00,56.3,42.1,30.31,ENE,66,10.3,13.0,59,0.00,CLR,,0.01,404.0,WeatherDisplay:10.37,2014-01-23 21:19:00,
2014-01-23 13:24:00,56.5,42.3,30.31,ENE,62,10.3,12.7,59,0.00,CLR,,0.01,392.0,WeatherDisplay:10.37,2014-01-23 21:24:00,
2014-01-23 13:29:00,56.6,42.0,30.30,ENE,72,8.4,11.5,58,0.00,CLR,,0.01,399.0,WeatherDisplay:10.37,2014-01-23 21:29:00,
2014-01-23 13:35:00,56.7,42.5,30.30,East,87,9.0,16.0,59,0.00,CLR,,0.01,397.0,WeatherDisplay:10.37,2014-01-23 21:35:00,
2014-01-23 13:40:00,56.8,41.2,30.30,East,84,9.0,14.0,56,0.00,CLR,,0.01,396.0,WeatherDisplay:10.37,2014-01-23 21:40:00,
2014-01-23 13:45:00,56.8,41.3,30.30,ENE,78,13.0,20.0,56,0.00,CLR,,0.01,394.0,WeatherDisplay:10.37,2014-01-23 21:45:00,
2014-01-23 13:50:00,56.6,42.0,30.30,East,96,14.0,18.0,58,0.00,CLR,,0.01,364.0,WeatherDisplay:10.37,2014-01-23 21:50:00,
2014-01-23 13:55:00,56.3,41.3,30.30,East,91,5.0,13.0,57,0.00,CLR,,0.01,334.0,WeatherDisplay:10.37,2014-01-23 21:55:00,
2014-01-23 14:00:00,56.3,41.7,30.30,ENE,68,8.0,13.0,58,0.00,CLR,,0.01,367.0,WeatherDisplay:10.37,2014-01-23 22:00:00,
2014-01-23 14:05:00,56.3,41.3,30.30,ENE,76,10.0,17.0,57,0.00,CLR,,0.01,359.0,WeatherDisplay:10.37,2014-01-23 22:05:00,
2014-01-23 14:10:00,56.3,40.8,30.30,ENE,71,5.0,15.0,56,0.00,CLR,,0.01,346.0,WeatherDisplay:10.37,2014-01-23 22:10:00,
2014-01-23 14:15:00,56.3,41.7,30.29,ENE,58,7.7,7.7,58,0.00,CLR,,0.01,338.0,WeatherDisplay:10.37,2014-01-23 22:15:00,
2014-01-23 14:20:00,56.3,40.8,30.29,NNE,24,0.7,3.5,56,0.00,CLR,,0.01,334.0,WeatherDisplay:10.37,2014-01-23 22:20:00,
2014-01-23 14:25:00,56.2,41.2,30.29,ENE,62,3.9,4.6,57,0.00,CLR,,0.01,327.0,WeatherDisplay:10.37,2014-01-23 22:25:00,
2014-01-23 14:30:00,56.2,40.7,30.29,ENE,61,3.2,4.6,56,0.00,CLR,,0.01,322.0,WeatherDisplay:10.37,2014-01-23 22:30:00,
2014-01-23 14:36:00,56.2,41.2,30.29,East,79,6.4,10.4,57,0.00,CLR,,0.01,315.0,WeatherDisplay:10.37,2014-01-23 22:36:00,
2014-01-23 14:41:00,56.2,41.2,30.29,East,85,0.6,2.3,57,0.00,CLR,,0.01,304.0,WeatherDisplay:10.37,2014-01-23 22:41:00,
2014-01-23 14:46:00,56.3,41.7,30.29,ENE,77,4.3,4.6,58,0.00,CLR,,0.01,295.0,WeatherDisplay:10.37,2014-01-23 22:46:00,
2014-01-23 14:51:00,56.3,40.8,30.29,East,83,5.1,5.8,56,0.00,CLR,,0.01,281.0,WeatherDisplay:10.37,2014-01-23 22:51:00,
2014-01-23 14:56:00,56.3,41.3,30.29,ENE,58,4.9,6.9,57,0.00,CLR,,0.01,267.0,WeatherDisplay:10.37,2014-01-23 22:56:00,
2014-01-23 15:01:00,56.3,40.8,30.29,NE,56,4.1,5.8,56,0.00,CLR,,0.01,255.0,WeatherDisplay:10.37,2014-01-23 23:01:00,
2014-01-23 15:06:00,56.3,41.7,30.28,NE,46,1.4,2.3,58,0.00,FEW,,0.01,243.0,WeatherDisplay:10.37,2014-01-23 23:06:00,
2014-01-23 15:11:00,56.4,41.3,30.28,NE,45,2.1,3.5,57,0.00,FEW,,0.01,230.0,WeatherDisplay:10.37,2014-01-23 23:11:00,
2014-01-23 15:16:00,56.4,40.9,30.28,NE,39,3.0,3.5,56,0.00,FEW,,0.01,218.0,WeatherDisplay:10.37,2014-01-23 23:16:00,
2014-01-23 15:21:00,56.4,40.9,30.28,NE,46,4.1,4.6,56,0.00,FEW,,0.01,204.0,WeatherDisplay:10.37,2014-01-23 23:21:00,
2014-01-23 15:26:00,56.6,40.6,30.28,ESE,104,7.4,7.4,55,0.00,FEW,,0.01,192.0,WeatherDisplay:10.37,2014-01-23 23:26:00,
2014-01-23 15:31:00,56.7,40.2,30.28,East,80,9.2,10.4,54,0.00,SCT,,0.01,178.0,WeatherDisplay:10.37,2014-01-23 23:31:00,
2014-01-23 15:36:00,56.7,41.2,30.28,East,80,6.1,10.4,56,0.00,SCT,,0.01,167.0,WeatherDisplay:10.37,2014-01-23 23:36:00,
2014-01-23 15:42:00,56.6,40.6,30.27,ESE,112,2.3,5.8,55,0.00,SCT,,0.01,149.0,WeatherDisplay:10.37,2014-01-23 23:42:00,
2014-01-23 15:48:00,56.6,40.6,30.28,ESE,116,2.0,3.5,55,0.00,SCT,,0.01,134.0,WeatherDisplay:10.37,2014-01-23 23:48:00,
2014-01-23 15:53:00,56.5,41.0,30.27,North,10,4.3,9.2,56,0.00,SCT,,0.01,120.0,WeatherDisplay:10.37,2014-01-23 23:53:00,
2014-01-23 15:58:00,56.4,40.4,30.27,ENE,66,2.9,9.0,55,0.00,SCT,,0.01,109.0,WeatherDisplay:10.37,2014-01-23 23:58:00,
2014-01-23 16:03:00,56.4,40.0,30.27,ENE,70,4.2,6.9,54,0.00,BKN,,0.01,95.0,WeatherDisplay:10.37,2014-01-24 00:03:00,
2014-01-23 16:08:00,56.3,38.9,30.27,NE,41,6.9,11.5,52,0.00,BKN,,0.01,83.0,WeatherDisplay:10.37,2014-01-24 00:08:00,
2014-01-23 16:13:00,56.2,38.8,30.27,ENE,77,6.5,9.2,52,0.00,BKN,,0.01,70.0,WeatherDisplay:10.37,2014-01-24 00:13:00,
2014-01-23 16:18:00,56.2,38.8,30.27,NNE,30,5.6,9.2,52,0.00,BKN,,0.01,60.0,WeatherDisplay:10.37,2014-01-24 00:18:00,
2014-01-23 16:23:00,56.1,38.7,30.27,East,87,3.7,10.4,52,0.00,BKN,,0.01,49.0,WeatherDisplay:10.37,2014-01-24 00:23:00,
2014-01-23 16:28:00,56.0,38.6,30.27,NE,52,5.5,11.5,52,0.00,BKN,,0.01,39.0,WeatherDisplay:10.37,2014-01-24 00:28:00,
2014-01-23 16:33:00,56.0,38.6,30.27,ENE,58,4.1,5.8,52,0.00,BKN,,0.01,32.0,WeatherDisplay:10.37,2014-01-24 00:33:00,
2014-01-23 16:38:00,55.9,38.5,30.27,ENE,60,3.6,5.8,52,0.00,BKN,,0.01,25.0,WeatherDisplay:10.37,2014-01-24 00:38:00,
2014-01-23 16:43:00,55.7,38.8,30.27,NE,35,4.7,6.9,53,0.00,BKN,,0.01,21.0,WeatherDisplay:10.37,2014-01-24 00:43:00,
2014-01-23 16:48:00,55.5,39.1,30.26,NE,50,4.0,6.9,54,0.00,BKN,,0.01,16.0,WeatherDisplay:10.37,2014-01-24 00:48:00,
2014-01-23 16:53:00,55.2,38.4,30.26,NE,55,4.9,10.4,53,0.00,BKN,,0.01,11.0,WeatherDisplay:10.37,2014-01-24 00:53:00,
2014-01-23 16:58:00,54.8,38.9,30.27,NE,40,3.6,4.6,55,0.00,BKN,,0.01,9.0,WeatherDisplay:10.37,2014-01-24 00:58:00,
2014-01-23 17:03:00,54.3,38.9,30.26,East,93,2.5,4.6,56,0.00,BKN,,0.01,7.0,WeatherDisplay:10.37,2014-01-24 01:03:00,
2014-01-23 17:08:00,53.7,38.4,30.26,ENE,77,6.5,7.0,56,0.00,BKN,,0.01,5.0,WeatherDisplay:10.37,2014-01-24 01:08:00,
2014-01-23 17:13:00,52.8,38.9,30.27,ENE,78,6.5,6.9,59,0.00,BKN,,0.01,0.0,WeatherDisplay:10.37,2014-01-24 01:13:00,
2014-01-23 17:15:00,51.8,38.3,30.26,ENE,64,6.0,7.0,60,0.00,RA,,0.01,0.0,WeatherDisplay:10.37,2014-01-24 01:15:00,
2014-01-23 17:18:00,52.4,38.5,30.26,East,85,3.7,4.0,59,0.00,BKN,,0.01,0.0,WeatherDisplay:10.37,2014-01-24 01:18:00,
2014-01-23 17:23:00,52.1,38.6,30.26,NE,53,1.2,2.3,60,0.00,BKN,,0.01,0.0,WeatherDisplay:10.37,2014-01-24 01:23:00,
2014-01-23 17:28:00,51.7,38.7,30.27,NNE,21,5.5,6.9,61,0.00,BKN,,0.01,0.0,WeatherDisplay:10.37,2014-01-24 01:28:00,
2014-01-23 17:33:00,51.4,38.4,30.26,NNE,24,4.5,6.9,61,0.00,BKN,,0.01,0.0,WeatherDisplay:10.37,2014-01-24 01:33:00,
2014-01-23 17:38:00,51.4,38.8,30.26,ENE,59,5.7,5.8,62,0.00,BKN,,0.01,0.0,WeatherDisplay:10.37,2014-01-24 01:38:00,
2014-01-23 17:43:00,51.3,38.7,30.26,ENE,64,8.6,10.4,62,0.00,BKN,,0.01,0.0,WeatherDisplay:10.37,2014-01-24 01:43:00,
2014-01-23 17:49:00,51.6,39.0,30.26,ENE,76,9.1,11.5,62,0.00,BKN,,0.01,0.0,WeatherDisplay:10.37,2014-01-24 01:49:00,
2014-01-23 17:54:00,51.4,38.8,30.26,ENE,62,4.0,6.9,62,0.00,BKN,,0.01,0.0,WeatherDisplay:10.37,2014-01-24 01:54:00,
2014-01-23 17:59:00,51.5,38.5,30.26,ENE,72,5.6,11.5,61,0.00,BKN,,0.01,0.0,WeatherDisplay:10.37,2014-01-24 01:59:00,
2014-01-23 18:04:00,51.8,37.9,30.26,ENE,68,11.2,12.7,59,0.00,BKN,,0.01,0.0,WeatherDisplay:10.37,2014-01-24 02:04:00,
2014-01-23 18:09:00,52.1,38.2,30.26,ENE,66,5.8,11.5,59,0.00,BKN,,0.01,0.0,WeatherDisplay:10.37,2014-01-24 02:09:00,
2014-01-23 18:15:00,51.7,38.3,30.26,East,85,7.0,7.0,60,0.00,RA,,0.01,0.0,WeatherDisplay:10.37,2014-01-24 02:15:00,
2014-01-23 18:20:00,51.4,38.4,30.25,ENE,66,2.6,4.6,61,0.00,RA,,0.01,0.0,WeatherDisplay:10.37,2014-01-24 02:20:00,
2014-01-23 18:25:00,51.0,38.4,30.25,NE,54,3.5,4.6,62,0.00,CLR,,0.01,0.0,WeatherDisplay:10.37,2014-01-24 02:25:00,
2014-01-23 18:30:00,50.6,38.5,30.25,North,9,1.8,2.3,63,0.00,CLR,,0.01,0.0,WeatherDisplay:10.37,2014-01-24 02:30:00,
2014-01-23 18:35:00,50.0,38.3,30.25,NW,311,2.3,3.5,64,0.00,CLR,,0.01,0.0,WeatherDisplay:10.37,2014-01-24 02:35:00,
2014-01-23 18:40:00,49.3,38.4,30.26,NW,305,0.1,1.2,66,0.00,CLR,,0.01,0.0,WeatherDisplay:10.37,2014-01-24 02:40:00,
2014-01-23 18:45:00,48.9,38.0,30.26,NNW,339,1.6,3.5,66,0.00,CLR,,0.01,0.0,WeatherDisplay:10.37,2014-01-24 02:45:00,
2014-01-23 18:50:00,48.5,38.4,30.26,ENE,66,1.8,3.5,68,0.00,CLR,,0.01,0.0,WeatherDisplay:10.37,2014-01-24 02:50:00,
2014-01-23 18:55:00,48.1,38.8,30.26,NE,47,3.5,4.6,70,0.00,CLR,,0.01,0.0,WeatherDisplay:10.37,2014-01-24 02:55:00,
2014-01-23 19:00:00,48.0,39.4,30.26,North,9,2.0,3.5,72,0.00,CLR,,0.01,0.0,WeatherDisplay:10.37,2014-01-24 03:00:00,
2014-01-23 19:05:00,48.0,39.8,30.25,North,355,3.8,3.8,73,0.00,CLR,,0.01,0.0,WeatherDisplay:10.37,2014-01-24 03:05:00,
2014-01-23 19:10:00,47.9,39.7,30.25,North,357,1.7,3.5,73,0.00,CLR,,0.01,0.0,WeatherDisplay:10.37,2014-01-24 03:10:00,
2014-01-23 19:15:00,47.9,39.3,30.25,North,353,1.5,2.3,72,0.00,CLR,,0.01,0.0,WeatherDisplay:10.37,2014-01-24 03:15:00,
2014-01-23 19:21:00,47.9,39.3,30.25,North,350,0.1,1.2,72,0.00,CLR,,0.01,0.0,WeatherDisplay:10.37,2014-01-24 03:21:00,
2014-01-23 19:26:00,47.7,39.1,30.25,North,3,1.1,3.5,72,0.00,CLR,,0.01,0.0,WeatherDisplay:10.37,2014-01-24 03:26:00,
2014-01-23 19:31:00,47.5,38.6,30.25,NNE,29,5.3,10.4,71,0.00,CLR,,0.01,0.0,WeatherDisplay:10.37,2014-01-24 03:31:00,
2014-01-23 19:36:00,47.9,38.2,30.25,ENE,76,5.2,8.1,69,0.00,CLR,,0.01,0.0,WeatherDisplay:10.37,2014-01-24 03:36:00,
2014-01-23 19:41:00,48.7,38.6,30.25,WNW,291,1.5,4.0,68,0.00,CLR,,0.01,0.0,WeatherDisplay:10.37,2014-01-24 03:41:00,
2014-01-23 19:46:00,48.9,38.8,30.26,WNW,291,0.0,0.0,68,0.00,CLR,,0.01,0.0,WeatherDisplay:10.37,2014-01-24 03:46:00,
2014-01-23 19:52:00,49.1,37.8,30.26,ESE,114,6.2,9.2,65,0.00,CLR,,0.01,0.0,WeatherDisplay:10.37,2014-01-24 03:52:00,
2014-01-23 19:57:00,49.6,38.3,30.26,North,354,0.8,3.5,65,0.00,CLR,,0.01,0.0,WeatherDisplay:10.37,2014-01-24 03:57:00,
2014-01-23 20:02:00,49.8,38.1,30.26,ENE,62,4.7,12.7,64,0.00,CLR,,0.01,0.0,WeatherDisplay:10.37,2014-01-24 04:02:00,
2014-01-23 20:07:00,50.3,37.8,30.26,ENE,59,6.5,9.2,62,0.00,CLR,,0.01,0.0,WeatherDisplay:10.37,2014-01-24 04:07:00,
2014-01-23 20:12:00,51.0,38.0,30.26,NE,56,0.6,2.3,61,0.00,CLR,,0.01,0.0,WeatherDisplay:10.37,2014-01-24 04:12:00,
2014-01-23 20:17:00,51.5,37.6,30.26,NE,51,4.7,10.4,59,0.00,CLR,,0.01,0.0,WeatherDisplay:10.37,2014-01-24 04:17:00,
2014-01-23 20:22:00,51.8,37.5,30.26,NE,52,6.5,6.9,58,0.00,CLR,,0.01,0.0,WeatherDisplay:10.37,2014-01-24 04:22:00,
2014-01-23 20:27:00,52.1,37.8,30.27,ESE,106,0.9,2.3,58,0.00,CLR,,0.01,0.0,WeatherDisplay:10.37,2014-01-24 04:27:00,
2014-01-23 20:32:00,51.9,37.6,30.27,South,173,0.0,2.3,58,0.00,CLR,,0.01,0.0,WeatherDisplay:10.37,2014-01-24 04:32:00,
2014-01-23 20:37:00,51.5,37.2,30.27,ENE,77,5.9,10.4,58,0.00,CLR,,0.01,0.0,WeatherDisplay:10.37,2014-01-24 04:37:00,
2014-01-23 20:42:00,51.1,36.8,30.27,East,93,0.8,1.2,58,0.00,CLR,,0.01,0.0,WeatherDisplay:10.37,2014-01-24 04:42:00,
2014-01-23 20:47:00,50.6,36.8,30.27,East,93,0.0,2.3,59,0.00,CLR,,0.01,0.0,WeatherDisplay:10.37,2014-01-24 04:47:00,
2014-01-23 20:52:00,49.9,37.4,30.27,NNW,335,1.6,3.5,62,0.00,CLR,,0.01,0.0,WeatherDisplay:10.37,2014-01-24 04:52:00,
2014-01-23 20:57:00,49.1,36.6,30.27,NNW,335,0.0,1.2,62,0.00,CLR,,0.01,0.0,WeatherDisplay:10.37,2014-01-24 04:57:00,
2014-01-23 21:01:00,48.5,36.5,30.28,NNW,335,0.0,0.0,63,0.00,CLR,,0.01,0.0,WeatherDisplay:10.37,2014-01-24 05:01:00,
2014-01-23 21:04:00,47.8,36.2,30.28,NE,50,0.3,3.5,64,0.00,CLR,,0.01,0.0,WeatherDisplay:10.37,2014-01-24 05:04:00,
2014-01-23 21:09:00,47.3,36.5,30.27,NE,50,0.0,0.0,66,0.00,CLR,,0.01,0.0,WeatherDisplay:10.37,2014-01-24 05:09:00,
2014-01-23 21:14:00,46.8,36.0,30.27,ENE,70,0.2,2.3,66,0.00,CLR,,0.01,0.0,WeatherDisplay:10.37,2014-01-24 05:14:00,
2014-01-23 21:19:00,46.2,35.8,30.27,ENE,73,1.8,5.8,67,0.00,CLR,,0.01,0.0,WeatherDisplay:10.37,2014-01-24 05:19:00,
2014-01-23 21:24:00,46.2,36.2,30.27,ENE,58,9.2,11.5,68,0.00,CLR,,0.01,0.0,WeatherDisplay:10.37,2014-01-24 05:24:00,
2014-01-23 21:29:00,47.5,37.5,30.27,East,89,13.3,17.3,68,0.00,CLR,,0.01,0.0,WeatherDisplay:10.37,2014-01-24 05:29:00,
2014-01-23 21:34:00,49.2,37.9,30.27,East,91,13.2,19.6,65,0.00,CLR,,0.01,0.0,WeatherDisplay:10.37,2014-01-24 05:34:00,
2014-01-23 21:39:00,50.3,37.4,30.26,East,93,16.8,21.9,61,0.00,CLR,,0.01,0.0,WeatherDisplay:10.37,2014-01-24 05:39:00,
2014-01-23 21:45:00,51.0,37.2,30.27,East,95,11.6,16.1,59,0.00,CLR,,0.01,0.0,WeatherDisplay:10.37,2014-01-24 05:45:00,
2014-01-23 21:50:00,51.5,36.7,30.27,ESE,105,13.0,21.0,57,0.00,CLR,,0.01,0.0,WeatherDisplay:10.37,2014-01-24 05:50:00,
2014-01-23 21:55:00,52.2,36.5,30.27,ESE,109,14.0,22.0,55,0.00,CLR,,0.01,0.0,WeatherDisplay:10.37,2014-01-24 05:55:00,
2014-01-23 22:00:00,52.5,35.8,30.27,East,90,17.4,23.0,53,0.00,CLR,,0.01,0.0,WeatherDisplay:10.37,2014-01-24 06:00:00,
2014-01-23 22:05:00,52.7,36.0,30.27,ESE,109,16.0,23.0,53,0.00,CLR,,0.01,0.0,WeatherDisplay:10.37,2014-01-24 06:05:00,
2014-01-23 22:10:00,52.7,36.0,30.28,ESE,116,13.0,19.6,53,0.00,CLR,,0.01,0.0,WeatherDisplay:10.37,2014-01-24 06:10:00,
2014-01-23 22:15:00,52.4,35.8,30.28,ESE,104,13.0,21.0,53,0.00,CLR,,0.01,0.0,WeatherDisplay:10.37,2014-01-24 06:15:00,
2014-01-23 22:20:00,52.1,35.9,30.28,East,101,14.0,18.0,54,0.00,CLR,,0.01,0.0,WeatherDisplay:10.37,2014-01-24 06:20:00,
2014-01-23 22:25:00,52.1,35.5,30.28,East,100,17.5,20.7,53,0.00,CLR,,0.01,0.0,WeatherDisplay:10.37,2014-01-24 06:25:00,
2014-01-23 22:30:00,52.2,36.0,30.28,East,85,16.1,19.6,54,0.00,CLR,,0.01,0.0,WeatherDisplay:10.37,2014-01-24 06:30:00,
2014-01-23 22:35:00,52.1,35.9,30.28,East,94,13.4,18.4,54,0.00,CLR,,0.01,0.0,WeatherDisplay:10.37,2014-01-24 06:35:00,
2014-01-23 22:40:00,51.8,35.7,30.28,East,94,9.6,15.0,54,0.00,CLR,,0.01,0.0,WeatherDisplay:10.37,2014-01-24 06:40:00,
2014-01-23 22:45:00,51.5,35.9,30.28,East,95,9.9,12.0,55,0.00,CLR,,0.01,0.0,WeatherDisplay:10.37,2014-01-24 06:45:00,
2014-01-23 22:50:00,51.2,36.0,30.28,ESE,105,14.3,19.6,56,0.00,CLR,,0.01,0.0,WeatherDisplay:10.37,2014-01-24 06:50:00,
2014-01-23 22:55:00,51.0,35.8,30.28,East,85,11.2,16.1,56,0.00,CLR,,0.01,0.0,WeatherDisplay:10.37,2014-01-24 06:55:00,
2014-01-23 23:00:00,51.2,35.6,30.27,ESE,102,13.3,19.6,55,0.00,CLR,,0.01,0.0,WeatherDisplay:10.37,2014-01-24 07:00:00,
2014-01-23 23:05:00,51.3,35.7,30.28,SE,128,13.5,19.6,55,0.00,CLR,,0.01,0.0,WeatherDisplay:10.37,2014-01-24 07:05:00,
2014-01-23 23:10:00,51.1,35.5,30.28,SSE,154,9.8,11.5,55,0.00,CLR,,0.01,0.0,WeatherDisplay:10.37,2014-01-24 07:10:00,
2014-01-23 23:15:00,51.1,35.0,30.28,ESE,107,9.0,9.2,54,0.00,CLR,,0.01,0.0,WeatherDisplay:10.37,2014-01-24 07:15:00,
2014-01-23 23:21:00,51.3,35.2,30.28,East,81,8.1,15.0,54,0.00,CLR,,0.01,0.0,WeatherDisplay:10.37,2014-01-24 07:21:00,
2014-01-23 23:26:00,51.9,34.8,30.27,ESE,102,15.5,19.6,52,0.00,CLR,,0.01,0.0,WeatherDisplay:10.37,2014-01-24 07:26:00,
2014-01-23 23:31:00,52.1,34.5,30.28,ESE,108,16.8,21.9,51,0.00,CLR,,0.01,0.0,WeatherDisplay:10.37,2014-01-24 07:31:00,
2014-01-23 23:36:00,52.4,34.3,30.28,ESE,106,18.8,25.3,50,0.00,CLR,,0.01,0.0,WeatherDisplay:10.37,2014-01-24 07:36:00,
2014-01-23 23:41:00,52.5,34.4,30.28,ESE,112,16.1,19.6,50,0.00,CLR,,0.01,0.0,WeatherDisplay:10.37,2014-01-24 07:41:00,
2014-01-23 23:46:00,52.6,34.0,30.28,ESE,121,12.0,17.3,49,0.00,CLR,,0.01,0.0,WeatherDisplay:10.37,2014-01-24 07:46:00,
2014-01-23 23:51:00,52.8,33.6,30.28,ENE,72,12.3,17.3,48,0.00,CLR,,0.01,0.0,WeatherDisplay:10.37,2014-01-24 07:51:00,
2014-01-23 23:56:00,53.0,33.8,30.28,ENE,72,9.4,16.1,48,0.00,CLR,,0.01,0.0,WeatherDisplay:10.37,2014-01-24 07:56:00,